Saint Martin Island, Sint Maarten

5:53 AM AST on December 06, 2016 (GMT -0400)
Princess Juliana International

Weather History for TNCM - October, 2013

Change the Weather History Date:

Thursday, October 17, 2013

  Actual Average Record
Temperature  
Mean Temperature 84 °F -  
Max Temperature 89 °F 86 °F 91 °F (2000)
Min Temperature 80 °F 77 °F 75 °F (2000)
Cooling Degree Days 20    
Growing Degree Days 34 (Base 50)    
Moisture  
Dew Point 76 °F    
Average Humidity 75    
Maximum Humidity 84    
Minimum Humidity 61    
Precipitation  
Precipitation 0.00 in - - ()
Sea Level Pressure  
Sea Level Pressure 29.92 in    
Wind  
Wind Speed 3 mph ()    
Max Wind Speed 8 mph    
Max Gust Speed -    
Visibility 6.2 miles    
Events      
Averages and records for this station are not official NWS values.
T = Trace of Precipitation, MM = Missing Value Source: Averaged Metar Reports

Daily Weather History Graph

Daily Weather History Graph

Search for Another Location

Airport or City:

Trip Planner

Search our weather history database for the weather conditions in past years. The results will help you decide how hot, cold, wet, or windy it might be!

Date:

Astronomy

Oct. 17, 2013 Rise Set
Actual Time 6:06 AM AST 5:48 PM AST
Civil Twilight 5:44 AM AST 6:10 PM AST
Nautical Twilight 5:19 AM AST 6:36 PM AST
Astronomical Twilight 4:53 AM AST 7:01 PM AST
Moon 4:54 PM AST (10/17) 4:43 AM AST (10/17)
Length of Visible Light 12h 26m
Length of Day
11h 42m
Waxing Gibbous, 98% of the Moon is Illuminated
Oct 17
Waxing Gibbous
Oct 18
Full
Oct 26
Last Quarter
Nov 3
New
Nov 10
First Quarter

Hourly Weather History & Observations

Time (AST) Temp. Heat Index Dew Point Humidity Pressure Visibility Wind Dir Wind Speed Gust Speed Precip Events Conditions
12:00 AM 82.4 °F 89.5 °F 75.2 °F 79% 29.92 in 6.2 mi ENE 3.5 mph - N/A   Partly Cloudy
1:00 AM 82.4 °F 89.5 °F 75.2 °F 79% 29.92 in 6.2 mi NE 1.2 mph - N/A   Partly Cloudy
2:00 AM 81 °F - 75 °F 77% 29.92 in 22 mi NE 2.3 mph - -   Scattered Clouds
2:00 AM 80.6 °F 86.2 °F 75.2 °F 84% 29.89 in 6.2 mi NE 2.3 mph - N/A   Partly Cloudy
3:00 AM 80.6 °F 86.2 °F 75.2 °F 84% 29.89 in 6.2 mi Variable 1.2 mph - N/A   Partly Cloudy
4:00 AM 80.6 °F 86.2 °F 75.2 °F 84% 29.89 in 6.2 mi Variable 1.2 mph - N/A   Partly Cloudy
5:00 AM 81 °F - 75 °F 78% 29.90 in 22 mi NE 2.3 mph - -   Scattered Clouds
5:00 AM 80.6 °F 86.2 °F 75.2 °F 84% 29.89 in 6.2 mi NE 2.3 mph - N/A   Partly Cloudy
6:00 AM 80.6 °F 86.2 °F 75.2 °F 84% 29.92 in 6.2 mi NNE 1.2 mph - N/A   Partly Cloudy
7:00 AM 82.4 °F 90.9 °F 77.0 °F 84% 29.92 in 6.2 mi ENE 2.3 mph - N/A   Partly Cloudy
8:00 AM 85 °F - 76 °F 67% 29.94 in 44 mi ENE 5.8 mph - -   Scattered Clouds
8:00 AM 86.0 °F 95.1 °F 75.2 °F 70% 29.95 in 6.2 mi NE 4.6 mph - N/A   Partly Cloudy
10:00 AM 87.8 °F 99.7 °F 77.0 °F 70% 29.95 in 6.2 mi NNE 6.9 mph - N/A   Scattered Clouds
11:00 AM 88 °F - 76 °F 61% 29.96 in 44 mi NNE 6.9 mph - -   Partly Cloudy
11:00 AM 87.8 °F 97.6 °F 75.2 °F 66% 29.95 in 6.2 mi NNE 8.1 mph - N/A   Scattered Clouds
1:00 PM 87.8 °F 97.6 °F 75.2 °F 66% 29.92 in 6.2 mi Variable 2.3 mph - N/A   Mostly Cloudy
2:00 PM 87 °F - 76 °F 63% 29.91 in 44 mi SW 3.5 mph - -   Mostly Cloudy
2:00 PM 86.0 °F 96.9 °F 77.0 °F 74% 29.89 in 6.2 mi SW 3.5 mph - N/A   Mostly Cloudy
3:00 PM 87.8 °F 99.7 °F 77.0 °F 70% 29.89 in 6.2 mi WSW 4.6 mph - N/A   Scattered Clouds
4:00 PM 86.0 °F 95.1 °F 75.2 °F 70% 29.89 in - North - - N/A   Scattered Clouds
5:00 PM 85 °F - 75 °F 66% 29.90 in 44 mi North 3.5 mph - -   Partly Cloudy
5:00 PM 86.0 °F 95.1 °F 75.2 °F 70% 29.89 in 6.2 mi Variable 1.2 mph - N/A   Scattered Clouds
6:00 PM 84.2 °F 92.3 °F 75.2 °F 74% 29.89 in 6.2 mi East 3.5 mph - N/A   Partly Cloudy
7:00 PM 84.2 °F 92.3 °F 75.2 °F 74% 29.89 in 6.2 mi Variable 3.5 mph - N/A   Partly Cloudy
8:00 PM 83 °F - 75 °F 72% 29.94 in 44 mi East 2.3 mph - -   Scattered Clouds
8:00 PM 84.2 °F 92.3 °F 75.2 °F 74% 29.92 in 6.2 mi East 2.3 mph - N/A   Partly Cloudy
9:00 PM 82.4 °F 89.5 °F 75.2 °F 79% 29.92 in 6.2 mi Variable 1.2 mph - N/A   Partly Cloudy
10:00 PM 82.4 °F 90.9 °F 77.0 °F 84% 29.92 in 6.2 mi Variable 2.3 mph - N/A   Partly Cloudy
11:00 PM 82 °F - 76 °F 78% 29.95 in 37 mi 1.2 mph - -   Scattered Clouds
11:00 PM 82.4 °F 90.9 °F 77.0 °F 84% 29.95 in 6.2 mi Variable 1.2 mph - N/A   Partly Cloudy